X

Jackpot

Texas Poker Multi Jackpot System

Kini Telah hadir Jackpot SUPER ROYAL FLUSH

Kini Telah hadir Jackpot 2000 (khusus table VIP keatas).

Ikutilah global jackpot yang tersedia di system kami, dengan system jackpot terbaru dan pertama di indonesia, anda dapat membeli jackpot dengan harga 100 rupiah saja dan menangkan hadiahnya hingga puluhan juta rupiah.

Jackpot bukanlah suatu keharusan untuk dibeli, namun kami memberikan suatu fitur tambahan untuk member tercinta dari www.pkjazz.com.

Terdapat tiga pilihan harga jackpot yang bisa anda beli yaitu :100,500,1000 dan 2000(khusus table VIP Keatas) rupiah.

Hadiah dari Multi jackpot system www.pkjazz.com

  1. full house x 10 harga jackpot yang anda beli.
      (contoh:anda membeli 1000 maka:1000 X10 = 10.000)
  2. four of kind x 250 harga jackpot yang anda beli
      (contoh:anda membeli 1000 maka:1000 X250 = 250.000)
  3. Straight flush x 1200
      (contoh:anda membeli 1000 maka:1000 X1200 = 1.200.000)
  4. Royal flush x 10000 harga jackpot yang anda beli
      (contoh:anda membeli 1000 maka:1000 X10000 = 10.000.000)
  5. SUPER ROYAL FLUSH x 30000 harga jackpot yang anda beli
      (contoh:anda membeli 1000 maka:1000 X30000 = 30.000.000)

Kondisi kartu

  1. full house adalah kondisi kartu dimana kartu anda dan kartu tengah dengan total 7 kartu bisa mendapatkan nilai 5 kartu dengan kombinasi 1 tris(three of kind) dan 1 pair, contoh 3 kartu 10 dan 2 kartu 5
  2. Four of kind adalah kondisi kartu dimana kartu anda dan kartu tengah dengan total 7 kartu bisa mendapatkan nilai 5 kartu dengan kombinasi 4 kartu yang sama jumlah dan 1 kartu apapun juga contoh anda mendapatkan 4 buah kartu angka 3 dan 1 kartu apapun.
  3. Staright flush adalah kondisi kartu dimana kartu anda dan kartu tengah dengan total 7 kartu bisa mendapatkan nilai 5 kartu dengan kombinasi seri / staright dengan kembang yang sama contoh : urutan kartu dari angka 5, 6, 7, 8 , 9 10 dengan kembang yg sama misalnya as hati
  4. Royal flush adalah kondisi kartu dimana kartu anda dan kartu tengah dengan total 7 kartu bisa mendapatkan nilai 5 kartu dengan kombinasi seri / staright dengan kembang yang sama tetapi kartu tersebut haruslah dimulai dari 10. contoh 10, Queen, Jack, King dan aces dengan kembang yang sama
  5. Super Royal flush adalah kondisi kartu dimana Kedua kartu anda digabung dengan 3 kartu pertama meja haruslah royal flush. contoh kartu anda 10,Queen kembang sama dan 3 kartu pertama meja adalah Jack, King dan aces dengan kembang yang sama

Demikian adalah penjelasan dari Multi Jackpot www.pkjazz.com terima kasih dan selamat bermain salam hoki dari kami

Texas Poker Jackpot Winner

TOP SUPER ROYAL FLUSH
No.TanggalNamaPriceWin
125/05 15:54DR1NKNGSuper Royal flush15,000,000
225/05 04:52SONGONG21Super Royal flush15,000,000
325/05 03:00WAMBE88Super Royal flush15,000,000
425/05 01:42NUVO199Super Royal flush15,000,000
525/05 01:25COPYWHIT3Super Royal flush6,000,000
TOP ROYAL FLUSH
No.TanggalNamaPriceWin
125/05 15:51NGLOCORoyal flush10,000,000
225/05 14:59G9AFAREZ7URoyal flush2,000,000
325/05 14:53DUNGNETRoyal flush2,000,000
425/05 14:38DOPO_888Royal flush5,000,000
525/05 14:27OGEB123Royal flush20,000,000
TOP STRAIGHT FLUSH
No.TanggalNamaPriceWin
125/05 15:59COKKLATStraight Flush1,200,000
225/05 15:58DEWAIN_9Straight Flush120,000
325/05 15:58LANCHUNGStraight Flush600,000
425/05 15:56ASIMO12Straight Flush2,400,000
525/05 15:56ALWAN10Straight Flush600,000
LATEST JACKPOT
No.TanggalNamaPriceWin
125/05 16:01KITUL29Full House5,000
225/05 16:01GENDONS23Full House10,000
325/05 16:01DB66401AFull House1,000
425/05 16:01MOT9999Full House2,000
525/05 16:01SAMURAIX56Full House10,000
625/05 16:01KXQV11V4DNFull House20,000
725/05 16:01ITUS99Full House1,000
825/05 16:01CINTA18Full House1,000
925/05 16:01DWTKDPJ01Full House1,000
1025/05 16:01SEMANGAT49Full House2,000
1125/05 16:01DD32D56DFull House5,000
1225/05 16:01LINUS38Full House10,000
1325/05 16:00ALVA1212Full House2,000
1425/05 16:00S3OTEAFull House500
1525/05 16:00NHAWEEFull House10,000
1625/05 16:00ZETTEMPURFour Of A Kind125,000
1725/05 16:00HUKYINVANFull House5,000
1825/05 16:00MEGAYANIFull House2,000
1925/05 16:00R2RN99Full House5,000
2025/05 16:00APR285Full House5,000
2125/05 16:00I71LH7ZTPMFull House5,000
2225/05 16:00KANTUL999Full House1,000
2325/05 16:00IPOELLHOKFull House2,000
2425/05 16:00FA2B9822Four Of A Kind50,000
2525/05 16:00NJR27999Full House10,000
2625/05 16:00BECCE989Full House10,000
2725/05 16:00DWTSODRUNNFull House2,000
2825/05 16:00AE8E5F65Full House10,000
2925/05 16:00AMBULANCFull House20,000
3025/05 16:00BLAO21Four Of A Kind500,000
3125/05 16:00NOBOY88Full House5,000
3225/05 16:00UNTUNGSA11Full House2,000
3325/05 16:00DAUS1221Full House1,000
3425/05 16:00SOS12345Full House1,000
3525/05 16:00RRQJERUK12Full House10,000
3625/05 16:00ZAVILIA98Full House10,000
3725/05 16:00PSRRAUTFull House20,000
3825/05 16:00ANJOLIE1Full House10,000
3925/05 16:00BRILIAN_12Full House5,000
4025/05 16:00Z3TTFull House10,000
4125/05 16:00BBO5Full House2,000
4225/05 16:00AKEUPURFull House5,000
4325/05 16:00YAI02Full House10,000
4425/05 16:00KRIWELFull House10,000
4525/05 16:00CKKOSONG89Full House1,000
4625/05 16:00RAPO19Full House10,000
4725/05 16:00JALI1980Four Of A Kind125,000
4825/05 16:00POKER2303Full House5,000
4925/05 16:00ROYAAL991Full House2,000
5025/05 16:00CULCUL3Full House10,000

Domino Multi Jackpot System

Ikutilah global jackpot yang tersedia di system kami, dengan system jackpot terbaru dan pertama di indonesia, anda dapat membeli jackpot dengan harga 100 rupiah saja dan menangkan hadiahnya hingga puluhan juta rupiah.

Jackpot bukanlah suatu keharusan untuk dibeli, namun kami memberikan suatu fitur tambahan untuk member tercinta dari www.pkjazz.com.

Terdapat tiga pilihan harga jackpot yang bisa anda beli yaitu :100,500 dan 1000 rupiah.

Hadiah dari Multi jackpot system www.pkjazz.com

  1. Murni Kecil x 50 harga jackpot yang anda beli.
      (contoh:anda membeli 1000 maka:1000 X 50 = 50.000)
  2. Murni Besar x 50 harga jackpot yang anda beli
      (contoh:anda membeli 1000 maka:1000 X 50 = 50.000)
  3. BALAK x 100 harga jackpot yang anda beli
      (contoh:anda membeli 1000 maka:1000 X 100 = 100.000)
  4. ENAM DEWA x 6666 harga jackpot yang anda beli
      (contoh:anda membeli 1000 maka:1000 X 6666 = 6.666.000)

Demikian adalah penjelasan dari Multi Jackpot www.pkjazz.com terima kasih dan selamat bermain salam hoki dari kami

Domino Jackpot Winner

TOP ENAM DEWA
No.TanggalNamaPriceWin
125/05 15:50JUHUB123murni enam6,666,000
225/05 13:56PANGGA86murni enam6,666,000
325/05 13:40WAKWAW127murni enam3,333,000
425/05 12:15NGEMIS18murni enam666,600
525/05 09:51ARKHAN29murni enam3,333,000
TOP BALAK
No.TanggalNamaPriceWin
125/05 15:58J4Y4K4Y4balak100,000
225/05 15:56BORRE77balak10,000
325/05 15:54HERI_123balak10,000
425/05 15:53ANDRESYbalak100,000
525/05 15:49NA11N99balak10,000
LATEST JACKPOT
No.TanggalNamaPriceWin
125/05 16:01DARTI7799murni kecil5,000
225/05 16:00GEPENKOBLOmurni kecil25,000
325/05 15:59RTCLAUKmurni kecil50,000
425/05 15:58JANAH244murni besar5,000
525/05 15:58J4Y4K4Y4balak100,000
625/05 15:57KPN72murni besar50,000
725/05 15:57C81CKL8OIOmurni kecil50,000
825/05 15:56BORRE77balak10,000
925/05 15:56WA_ONE772lucky992,500
1025/05 15:54HERI_123balak10,000
1125/05 15:54MIE01murni kecil50,000
1225/05 15:54MKS25murni besar25,000
1325/05 15:53A9MOLNQ052murni kecil5,000
1425/05 15:53KMOBELIXlucky9950,000
1525/05 15:53ANDRESYbalak100,000
1625/05 15:52JIMIN123murni kecil50,000
1725/05 15:52SHR72murni besar50,000
1825/05 15:52XZXAXKXYmurni kecil25,000
1925/05 15:51MUDA91murni kecil50,000
2025/05 15:51GOODBYE84murni besar25,000
2125/05 15:51FETZUmurni besar50,000
2225/05 15:50TERCUKUPImurni besar50,000
2325/05 15:50FETZUmurni besar50,000
2425/05 15:50JUHUB123murni enam6,666,000
2525/05 15:49NA11N99balak10,000
2625/05 15:49DWIDAIRmurni besar50,000
2725/05 15:49TOKEK1977murni kecil25,000
2825/05 15:48BADBOY200murni kecil50,000
2925/05 15:47ENDELLmurni kecil5,000
3025/05 15:47TUNA68murni kecil50,000
3125/05 15:47BULI03murni kecil50,000
3225/05 15:46MIKEYWAYbalak100,000
3325/05 15:45T4DPRADILANmurni kecil50,000
3425/05 15:44ODL1YEON0Rmurni besar25,000
3525/05 15:43BUNGOL99murni besar50,000
3625/05 15:43SIBOLANGXMmurni besar50,000
3725/05 15:43SHR72murni kecil50,000
3825/05 15:41BORRE77murni besar25,000
3925/05 15:41ODL1YEON0Rbalak50,000
4025/05 15:40BAHTIAR87murni besar25,000
4125/05 15:39HN9WC4DS4Zbalak100,000
4225/05 15:39C16NG55136murni kecil25,000
4325/05 15:38P4RL3NT338balak50,000
4425/05 15:38ABB11murni besar5,000
4525/05 15:37WILLYELmurni kecil5,000
4625/05 15:37FAKTA45balak100,000
4725/05 15:36IMAM1177lucky992,500
4825/05 15:36JAPAK6murni besar25,000
4925/05 15:36SHR72murni kecil50,000
5025/05 15:35DM82997murni besar25,000

Ceme Multi Jackpot System

Jackpot dilihat dari gabungan kartu pemain dengan kartu bandar. Bandar harus membeli jackpot sebanyak jumlah player yang sedang duduk. Sebagai contoh bila terdapat 3 pemain duduk bermain, dan bandar memutuskan untuk membeli jackpot Rp 1.000, maka pada periode tersebut bandar akan membeli jackpot sebanyak 3xRp1.000 = Rp3.000.

Jackpot bukanlah suatu keharusan untuk dibeli, namun kami memberikan suatu fitur tambahan untuk member tercinta dari www.pkjazz.com.

Terdapat tiga pilihan harga jackpot yang bisa anda beli yaitu :100,500 dan 1000 rupiah.

Hadiah dari Multi jackpot system www.pkjazz.com

  1. Murni Kecil x 50 harga jackpot yang anda beli.
      (contoh:anda membeli 1000 maka:1000 X 50 = 50.000)
  2. Murni Besar x 50 harga jackpot yang anda beli
      (contoh:anda membeli 1000 maka:1000 X 50 = 50.000)
  3. BALAK x 200 harga jackpot yang anda beli
      (contoh:anda membeli 1000 maka:1000 X 200 = 200.000)
  4. ENAM DEWA x 6666 harga jackpot yang anda beli
      (contoh:anda membeli 1000 maka:1000 X 6666 = 6.666.000)

Demikian adalah penjelasan dari Multi Jackpot www.pkjazz.com terima kasih dan selamat bermain salam hoki dari kami

Ceme Jackpot Winner

TOP ENAM DEWA
No.TanggalNamaPriceWin
125/05 15:59OANG212murni enam3,333,000
225/05 15:59RAI77murni enam666,600
325/05 15:36ROHISAH75murni enam6,666,000
425/05 15:36JACKARAKAmurni enam3,333,000
525/05 15:31DIBA87murni enam6,666,000
TOP BALAK
No.TanggalNamaPriceWin
125/05 16:00XIO_9balak200,000
225/05 16:00TI5EJTOBK4balak20,000
325/05 15:59BP884565balak100,000
425/05 15:59CUAN9balak200,000
525/05 15:58CASPER877balak20,000
LATEST JACKPOT
No.TanggalNamaPriceWin
125/05 16:01SAKTI44Nmurni kecil25,000
225/05 16:01G0J3K111murni besar5,000
325/05 16:01LUTER90murni besar50,000
425/05 16:01EVHAN28murni kecil25,000
525/05 16:01DWBTNGON38murni kecil25,000
625/05 16:01NAYA555murni kecil50,000
725/05 16:01BHARUNAmurni kecil5,000
825/05 16:00FUKYUNG85murni kecil5,000
925/05 16:00DAYT79murni kecil50,000
1025/05 16:00GONYICIL99murni kecil50,000
1125/05 16:00WIKARYATImurni kecil25,000
1225/05 16:00XIO_9balak200,000
1325/05 16:00LAILY14murni besar50,000
1425/05 16:00TI5EJTOBK4balak20,000
1525/05 16:00ASENG378murni besar25,000
1625/05 16:00MRS03murni kecil5,000
1725/05 16:00XCS015murni kecil50,000
1825/05 16:00KHAFI85murni besar25,000
1925/05 16:00SRTLDODImurni besar50,000
2025/05 16:00MILIK2828murni kecil25,000
2125/05 16:00CAKEL40murni kecil25,000
2225/05 15:59AA1BF14Dmurni kecil5,000
2325/05 15:59OANG212murni enam3,333,000
2425/05 15:59RAI77murni enam666,600
2525/05 15:59SANDIFITRAmurni besar5,000
2625/05 15:59SINCANHOKImurni kecil25,000
2725/05 15:59BP884565balak100,000
2825/05 15:59C3QPC3WXJWmurni kecil25,000
2925/05 15:59BRIBISA66murni kecil50,000
3025/05 15:59CUAN9balak200,000
3125/05 15:59MUCHA88murni besar5,000
3225/05 15:58CASPER877balak20,000
3325/05 15:58FAH997murni kecil50,000
3425/05 15:58LINPO323balak200,000
3525/05 15:58MAR150murni kecil5,000
3625/05 15:58TERHOKY99murni kecil25,000
3725/05 15:58ORCA321murni kecil25,000
3825/05 15:58SAMSYI1murni kecil50,000
3925/05 15:58HSA01balak200,000
4025/05 15:58BNR121balak200,000
4125/05 15:57JAKM4NIAmurni besar50,000
4225/05 15:57HERDI66balak200,000
4325/05 15:57ZINGGOTbalak200,000
4425/05 15:57BOLOKSOK15balak100,000
4525/05 15:57RYU808murni kecil50,000
4625/05 15:57RIANTY1murni kecil50,000
4725/05 15:57SAMSYI1murni kecil50,000
4825/05 15:57ENSTEIN8murni kecil25,000
4925/05 15:57RISMObalak20,000
5025/05 15:57OILINmurni kecil50,000